Location: Rounton
(54.4000°N, 1.3500°W)
Time: 02:49:21
(UTC+00:00)

Envisat - Pass Details

Date: 31 October 2021
Orbit: 764 x 766 km, 98.2° (Epoch: 28 November)

Event Time Altitude Azimuth Distance (km) Brightness Sun altitude
Rises 17:57:30 0° 223° (SW) 3,227 7.1 -12.9°
Reaches altitude 10° 18:01:18 10° 253° (WSW) 2,307 6.9 -13.4°
Maximum altitude 18:03:24 12° 278° (W) 2,140 6.6 -13.7°
Drops below altitude 10° 18:05:32 10° 302° (WNW) 2,314 6.3 -14.0°
Sets 18:09:22 0° 332° (NNW) 3,247 6.6 -14.6°
